Location: Navalespino
(40.5894°N, 4.2660°W)
Time: 06:41:29
(UTC+00:00)

CENTAUR R/B - Pass Details

Date: 18 April 2024
Orbit: 669 x 1515 km, 63.4° (Epoch: 22 May)

Event Time Altitude Azimuth Distance (km) Brightness Sun altitude
Rises 23:21:51 0° 323° (NW) 4,281 6.7 -36.6°
Reaches altitude 10° 23:24:34 10° 321° (NW) 3,402 6.0 -36.8°
Enters shadow 23:32:06 64° 275° (W) 1,598 3.4 -37.1°
